Weather History for Alpine, TX

Change the Weather History Date:

Saturday, May 11, 2013

  Actual Average (KMRF) Record (KMRF)
Temperature  
Mean Temperature 55 °F -  
Max Temperature 68 °F 81 °F 93 °F (2000)
Min Temperature 43 °F 49 °F 42 °F (1997)
Degree Days  
Heating Degree Days 10    
Growing Degree Days 5 (Base 50)    
Moisture  
Dew Point 45 °F    
Average Humidity 73    
Maximum Humidity 99    
Minimum Humidity 43    
Precipitation  
Precipitation 0.00 in - - ()
Sea Level Pressure  
Sea Level Pressure 30.31 in    
Wind  
Wind Speed 5 mph (NE)    
Max Wind Speed 16 mph    
Max Gust Speed 24 mph    
Visibility 10 miles    
Events Thunderstorm    
Averages and records for this station are not official NWS values.
T = Trace of Precipitation, MM = Missing Value Source: NWS Daily Summary

Daily Weather History Graph

Daily Weather History Graph

Search for Another Location

Airport:

Trip Planner

Search our weather history database for the weather conditions in past years. The results will help you decide how hot, cold, wet, or windy it might be!

Date:

Astronomy

May. 11, 2013 Rise Set
Actual Time 7:03 AM CDT 8:39 PM CDT
Civil Twilight 6:36 AM CDT 9:05 PM CDT
Nautical Twilight 6:05 AM CDT 9:36 PM CDT
Astronomical Twilight 5:32 AM CDT 10:09 PM CDT
Moon 8:14 AM CDT (5/11) 10:19 PM CDT (5/11)
Length of Visible Light 14h 28m
Length of Day
13h 36m
Waxing Crescent, 3% of the Moon is Illuminated
May 11
Waxing Crescent
May 17
First Quarter
May 24
Full
May 31
Last Quarter
Jun 8
New

Hourly Weather History & Observations

Time (CDT) Temp. Windchill Dew Point Humidity Pressure Visibility Wind Dir Wind Speed Gust Speed Precip Events Conditions
12:15 AM 48.2 °F - 47.3 °F 97% 30.30 in 10.0 mi Calm Calm - N/A   Scattered Clouds
12:35 AM 48.2 °F - 47.7 °F 98% 30.30 in 10.0 mi Calm Calm - N/A   Clear
12:55 AM 47.5 °F - 46.6 °F 97% 30.30 in 10.0 mi North 3.5 mph - N/A   Clear
1:15 AM 47.5 °F - 46.8 °F 97% 30.30 in 10.0 mi Calm Calm - N/A   Clear
1:35 AM 47.1 °F - 46.2 °F 97% 30.30 in 10.0 mi Calm Calm - N/A   Clear
1:55 AM 45.3 °F - 45.0 °F 99% 30.29 in 7.0 mi Calm Calm - N/A   Clear
2:15 AM 45.5 °F 43.2 °F 45.3 °F 99% 30.28 in 7.0 mi South 4.6 mph - N/A   Clear
2:35 AM 44.8 °F 42.4 °F 44.2 °F 98% 30.28 in 10.0 mi South 4.6 mph - N/A   Clear
2:55 AM 45.1 °F 42.8 °F 44.4 °F 97% 30.28 in 10.0 mi SSW 4.6 mph - N/A   Clear
3:15 AM 45.7 °F 42.7 °F 44.8 °F 97% 30.27 in 10.0 mi South 5.8 mph - N/A   Clear
3:35 AM 44.8 °F 42.4 °F 43.3 °F 95% 30.27 in 10.0 mi SSW 4.6 mph - N/A   Clear
3:55 AM 44.6 °F 43.1 °F 43.2 °F 95% 30.27 in 10.0 mi SW 3.5 mph - N/A   Clear
4:15 AM 44.2 °F 42.7 °F 43.0 °F 95% 30.28 in 10.0 mi West 3.5 mph - N/A   Clear
4:35 AM 43.9 °F 41.3 °F 42.6 °F 95% 30.28 in 10.0 mi West 4.6 mph - N/A   Clear
4:55 AM 45.1 °F 43.7 °F 43.0 °F 92% 30.28 in 10.0 mi NNW 3.5 mph - N/A   Clear
5:15 AM 44.8 °F 43.3 °F 42.8 °F 93% 30.28 in 10.0 mi NNE 3.5 mph - N/A   Clear
5:35 AM 45.0 °F - 43.0 °F 93% 30.28 in 10.0 mi Calm Calm - N/A   Clear
5:55 AM 45.3 °F 43.0 °F 43.2 °F 92% 30.29 in 10.0 mi NNE 4.6 mph - N/A   Clear
6:15 AM 44.4 °F - 42.8 °F 94% 30.30 in 10.0 mi Calm Calm - N/A   Clear
6:35 AM 43.3 °F - 42.6 °F 97% 30.30 in 10.0 mi Calm Calm - N/A   Clear
6:55 AM 43.7 °F - 42.4 °F 95% 30.30 in 10.0 mi Calm Calm - N/A   Clear
7:15 AM 43.7 °F 40.3 °F 42.3 °F 95% 30.31 in 10.0 mi South 5.8 mph - N/A   Clear
7:35 AM 44.2 °F 41.8 °F 43.0 °F 95% 30.32 in 10.0 mi South 4.6 mph - N/A   Mostly Cloudy
7:55 AM 47.1 °F - 45.1 °F 93% 30.32 in 10.0 mi Calm Calm - N/A   Overcast
8:15 AM 49.3 °F - 46.4 °F 90% 30.32 in 10.0 mi Calm Calm - N/A   Overcast
8:35 AM 51.8 °F - 46.4 °F 82% 30.32 in 10.0 mi Calm Calm - N/A   Scattered Clouds
8:55 AM 52.7 °F - 47.5 °F 82% 30.33 in 10.0 mi Calm Calm - N/A   Clear
9:15 AM 54.1 °F - 48.4 °F 81% 30.33 in 10.0 mi NNE 5.8 mph - N/A   Clear
9:35 AM 55.4 °F - 49.1 °F 79% 30.34 in 10.0 mi NE 8.1 mph - N/A   Scattered Clouds
10:15 AM 58.5 °F - 49.5 °F 72% 30.34 in 10.0 mi NE 8.1 mph - N/A   Scattered Clouds
10:35 AM 59.5 °F - 49.1 °F 68% 30.34 in 10.0 mi NE 8.1 mph - N/A   Scattered Clouds
11:15 AM 60.3 °F - 48.0 °F 64% 30.34 in 10.0 mi NE 8.1 mph - N/A   Mostly Cloudy
12:15 PM 63.0 °F - 46.0 °F 54% 30.34 in 10.0 mi ENE 16.1 mph 19.6 mph N/A   Scattered Clouds
12:55 PM 63.9 °F - 45.5 °F 51% 30.34 in 10.0 mi ENE 15.0 mph 18.4 mph N/A   Mostly Cloudy
1:55 PM 65.5 °F - 45.0 °F 47% 30.33 in 10.0 mi ENE 13.8 mph 20.7 mph N/A   Mostly Cloudy
2:35 PM 63.9 °F - 45.7 °F 52% 30.33 in 10.0 mi ENE 15.0 mph 18.4 mph N/A   Mostly Cloudy
2:55 PM 64.0 °F - 45.5 °F 51% 30.32 in 10.0 mi NE 12.7 mph 17.3 mph N/A   Mostly Cloudy
3:15 PM 64.8 °F - 46.0 °F 51% 30.32 in 10.0 mi ENE 12.7 mph - N/A   Mostly Cloudy
3:35 PM 64.8 °F - 46.0 °F 51% 30.30 in 10.0 mi ENE 12.7 mph 20.7 mph N/A   Mostly Cloudy
3:55 PM 65.3 °F - 44.8 °F 47% 30.29 in 10.0 mi NE 12.7 mph 18.4 mph N/A   Scattered Clouds
4:15 PM 65.7 °F - 44.8 °F 47% 30.29 in 10.0 mi NNE 10.4 mph 18.4 mph N/A   Scattered Clouds
4:35 PM 66.0 °F - 43.7 °F 44% 30.29 in 10.0 mi NNE 11.5 mph - N/A Thunderstorm Scattered Clouds
4:55 PM 67.6 °F - 44.4 °F 43% 30.29 in 10.0 mi NE 13.8 mph 19.6 mph N/A   Scattered Clouds
5:35 PM 66.9 °F - 43.5 °F 43% 30.29 in 10.0 mi NE 13.8 mph 17.3 mph N/A   Scattered Clouds
5:55 PM 66.0 °F - 43.5 °F 44% 30.28 in 10.0 mi NNE 11.5 mph 16.1 mph N/A   Clear
6:15 PM 65.8 °F - 42.8 °F 43% 30.29 in 10.0 mi NE 11.5 mph 17.3 mph N/A   Clear
6:35 PM 63.3 °F - 44.4 °F 50% 30.28 in 10.0 mi North 16.1 mph 24.2 mph N/A   Scattered Clouds
6:55 PM 62.1 °F - 46.4 °F 56% 30.29 in 10.0 mi NNW 5.8 mph - N/A   Mostly Cloudy
7:15 PM 63.1 °F - 44.8 °F 51% 30.29 in 10.0 mi NNE 12.7 mph 20.7 mph N/A   Mostly Cloudy
7:35 PM 61.7 °F - 44.2 °F 53% 30.29 in 10.0 mi North 13.8 mph 18.4 mph N/A   Mostly Cloudy
7:55 PM 60.6 °F - 45.9 °F 58% 30.29 in 10.0 mi North 10.4 mph - N/A   Mostly Cloudy
8:15 PM 62.4 °F - 43.9 °F 51% 30.30 in 10.0 mi North 9.2 mph - N/A Thunderstorm Mostly Cloudy
8:35 PM 60.8 °F - 44.6 °F 55% 30.30 in 10.0 mi NNE 5.8 mph - N/A   Mostly Cloudy
8:55 PM 58.8 °F - 44.6 °F 59% 30.32 in 10.0 mi SSE 12.7 mph 17.3 mph N/A   Mostly Cloudy
9:15 PM 58.1 °F - 44.4 °F 60% 30.32 in 10.0 mi SSE 9.2 mph - N/A   Mostly Cloudy
9:35 PM 57.6 °F - 44.8 °F 62% 30.33 in 10.0 mi SSE 11.5 mph - N/A   Scattered Clouds
9:55 PM 57.4 °F - 45.5 °F 65% 30.34 in 10.0 mi SSE 9.2 mph - N/A   Clear
10:15 PM 57.2 °F - 45.5 °F 65% 30.34 in 10.0 mi Calm Calm - N/A   Clear
10:35 PM 57.2 °F - 44.8 °F 63% 30.35 in 10.0 mi Calm Calm - N/A   Clear
11:15 PM 58.1 °F - 43.0 °F 57% 30.37 in 10.0 mi SSW 4.6 mph - N/A   Clear
11:35 PM 57.6 °F - 42.6 °F 57% 30.37 in 10.0 mi Calm Calm - N/A   Clear
11:55 PM 58.6 °F - 41.9 °F 54% 30.38 in 10.0 mi SE 3.5 mph - N/A   Clear